Regional Weather Roundup
Issued by NWS

Home | Current Version | Previous Version | Text Only | Print | Product List | Glossary On
Versions: 1 2 3 4 5 6 7 8 9 10 11 12 13 14 15 16 17 18 19 20 21 22 23 24 25 26 27 28 29 30 31 32 33 34 35 36 37 38 39 40 41 42 43 44 45 46 47 48 49 50
000
ASUS46 KSEW 080810
RWRWA

WASHINGTON REGIONAL WEATHER ROUNDUP
NATIONAL WEATHER SERVICE SEATTLE WA
1200 AM PST MON FEB 08 2016

NOTE:"FAIR" INDICATES FEW OR NO CLOUDS BELOW 12,000 FEET WITH NO
SIGNIFICANT WEATHER AND/OR OBSTRUCTIONS TO VISIBILITY.

WAZ505-507>509-080900-
SEATTLE, TACOMA, EVERETT, AND VICINITY

CITY           SKY/WX    TMP DP  RH WIND       PRES   REMARKS
EVERETT        CLEAR     42  37  82 N5        30.51S
BOEING FIELD   CLEAR     41  39  93 CALM      30.51S
RENTON         CLEAR     44  40  85 NW7       30.50S
SEATAC AIRPORT CLEAR     42  38  85 N8        30.50S
JBLM-MCCHORD   CLEAR     34  34 100 CALM      30.50R
PUYALLUP       FAIR      36  36 100 CALM      30.49S
BREMERTON      CLEAR     45  39  81 N12       30.52S
JBLM-FT LEWIS  CLEAR     36  36 100 MISG      30.49S
TACOMA NARROWS CLEAR     44  38  79 N8        30.50R
$$

WAZ001-503-506-510-514-515-080900-
NORTH INTERIOR

CITY           SKY/WX    TMP DP  RH WIND       PRES   REMARKS
BELLINGHAM     CLOUDY    44  37  76 N8        30.52S
FRIDAY HARBOR  CLOUDY    47  39  74 N7        30.54R
EASTSOUND      CLEAR     46  41  81 N8        30.53R
PORT ANGELES   CLOUDY    42  39  89 SE5       30.53S
EDIZ HOOK      FAIR      43  40  88 S3        30.54R
PORT TOWNSEND  FAIR      37  37 100 CALM      30.53F
NAS WHIDBEY    PTCLDY    41  38  89 E5        30.56F
ARLINGTON      CLEAR     37  30  75 CALM      30.54R
BURLINGTON     CLEAR     43  37  81 NW7       30.53R
$$

WAZ020-022-039-040-504-511-512-080900-
SOUTHWEST INTERIOR

CITY           SKY/WX    TMP DP  RH WIND       PRES   REMARKS
SHELTON        FOG       33  32  96 CALM      30.48S VSB 1
OLYMPIA        CLEAR     34  33  96 CALM      30.50R
CHEHALIS       FAIR      39  39 100 CALM      30.49R
KELSO          CLEAR     41  37  87 CALM      30.49R
VANCOUVER      CLEAR     41  38  89 CALM      30.45S
SCAPPOOSE, OR  CLEAR     41  40  96 CALM      30.45S FOG
PORTLAND, OR   CLEAR     45  39  79 NW3       30.46R
$$

WAZ021-516-517-080900-
WASHINGTON COAST

CITY           SKY/WX    TMP DP  RH WIND       PRES   REMARKS
FORKS          MOCLDY    47  41  80 E5        30.45S
HOQUIAM        CLEAR     45  38  76 E10       30.45R
ASTORIA, OR    CLEAR     47  43  86 NE5       30.40R
$$

WAZ019-023-024-040-518-519-080900-
CASCADE MOUNTAINS AND COLUMBIA GORGE

CITY           SKY/WX    TMP DP  RH WIND       PRES   REMARKS
STAMPEDE PASS  NOT AVBL
TROUTDALE, OR  CLEAR     50  36  58 E23G37    30.44S
THE DALLES, OR CLEAR     37  33  85 E5        30.64S
$$

WAZ026-027-041>044-520-521-080900-
EAST SLOPES

CITY           SKY/WX    TMP DP  RH WIND       PRES   REMARKS
OMAK           NOT AVBL
WENATCHEE      PTCLDY    33  26  75 W3        30.65S
ELLENSBURG     CLEAR     26  22  84 CALM      30.62S
YAKIMA         CLEAR     32  26  78 W3        30.63F
$$

WAZ028-034-035-080900-
COLUMBIA BASIN

CITY           SKY/WX    TMP DP  RH WIND       PRES   REMARKS
EPHRATA        PTCLDY    34  30  85 NW7       30.63F
MOSES LAKE     CLEAR     32  30  92 N7        30.64S
PASCO          CLEAR     33  30  88 SW3       30.66S
HERMISTON, OR  CLEAR     32  30  92 SE7       30.62F
$$

WAZ036>038-080900-
NORTHEAST WASHINGTON

CITY           SKY/WX    TMP DP  RH WIND       PRES   REMARKS
SPOKANE GEIGER PTCLDY    32  29  88 NE6       30.62S
SPOKANE FELTS  CLEAR     32  29  88 CALM      30.65R
FAIRCHILD AFB  CLEAR     32  30  93 NE8       30.61S
COEURDALENE,ID CLEAR     34  27  75 NE13      30.62R WCI  25
DEER PARK      PTCLDY    30  27  88 N3        30.65R
$$

WAZ029>033-080900-
SOUTHEAST WASHINGTON

CITY           SKY/WX    TMP DP  RH WIND       PRES   REMARKS
PULLMAN        CLEAR     38  30  73 E9        30.62S
LEWISTON, ID   CLEAR     37  30  75 E3        30.64S
WALLA WALLA    CLEAR     35  31  85 SE7       30.62S
PENDLETON, OR  CLEAR     37  32  82 NE3       30.60R
$$




USA.gov is the U.S. government's official web portal to all federal, state and local government web resources and services.